Tracking 28790 objects as of 19-Apr-2024
HD Live streaming from Space Station
objects crossing your sky now

USA 65

Track USA 65 now!
USA 65 is classified as:


NORAD ID: 20929
Int'l Code: 1990-095A
Perigee: 36,299.1 km
Apogee: 36,356.0 km
Inclination: 14.5 °
Period: 1,463.5 minutes
Semi major axis: 42698 km
RCS: Unknown
Launch date: November 13, 1990
Source: United States (US)
Launch site: AIR FORCE EASTERN TEST RANGE (AFETR)
Your satellite tracking list
Your tracking list is empty




NASA's NSSDC Master Catalog

Two Line Element Set (TLE):
1 20929U 90095A   24110.29557833 -.00000029  00000-0  00000+0 0  9996
2 20929  14.4978 349.5709 0006662  83.5763 110.1998  0.98397233 17692
Source of the keplerian elements: McCants